Flag for Germany Weather past 2 weeks in Jülich, North Rhine-Westphalia, Germany

Now
43 °F

Partly cloudy.


Feels Like: 34 °F
Forecast: 37 / 48 °F
Wind: 18 mph from West

Location: Geilenkirchen Airport

Current Time: Apr 1, 2015 at 2:48:47 AM

Latest Report: Apr 1, 2015 at 1:50 AM


Visibility: N/A

Pressure: 29.89 "Hg

Humidity: 71%

Dew point: 34 °F

Location of JülichLocation

Historic Weather in Jülich — Graph

°F

Jülich temperature yesterday

Maximum temperature yesterday: 54 °F (at 3:50 AM)
Minimum temperature yesterday: 41 °F (at 8:50 PM)
Average temperature yesterday: 49 °F

Past Weeks' High & Low Weather Summary

 TemperatureHumidityPressure
High63 °F (Mar 17, 3:50 PM)100% (Mar 17, 3:50 AM)30.39 "Hg (Mar 17, 3:50 AM)
Low28 °F (Mar 23, 6:50 AM)45% (Mar 17, 3:50 PM)29.36 "Hg (Mar 31, 4:50 AM)
Average45 °F80%29.98 "Hg
* Reported Mar 16 11:50 PM — Apr 1 12:50 AM, Jülich, Weather by CustomWeather, © 2015

Note: Actual official high and low records may vary slightly from our data, if they occured in-between our weather recording intervals... More about our weather records

Advertising

Jülich weather history for previous 24 hours

 ConditionsComfort  
Time TempWeatherWind HumidityBarometerVisibility
12:50 AM
Wed, Apr 1
43 °FPassing clouds.22 mph71%29.89 "HgN/A
11:50 PM
Tue, Mar 31
41 °FPassing clouds.20 mph81%29.86 "HgN/A
10:50 PM43 °FSprinkles. Passing clouds.30 mph76%29.86 "HgN/A
9:50 PM43 °FPassing clouds.18 mph81%29.86 "HgN/A
8:50 PM41 °FScattered clouds.31 mph87%29.83 "HgN/A
7:50 PM45 °FThunderstorms. Partly sunny.31 mph71%29.83 "Hg6 mi
6:50 PM50 °FThunderstorms. Scattered clouds.30 mph50%29.77 "HgN/A
5:50 PM52 °FScattered showers. Scattered clouds.35 mph47%29.77 "HgN/A
4:50 PM50 °FSunny.32 mph50%29.74 "Hg10 mi
3:50 PM52 °FScattered showers. Scattered clouds.37 mph50%29.71 "HgN/A
2:50 PM50 °FScattered clouds.32 mph62%29.65 "HgN/A
1:50 PM54 °FSprinkles. Scattered clouds.44 mph51%29.62 "HgN/A
12:50 PM52 °FScattered showers. Broken clouds.39 mph54%29.56 "HgN/A
11:50 AM54 °FPartly sunny.44 mph58%29.50 "HgN/A
10:50 AM52 °FPartly sunny.39 mph67%29.50 "HgN/A
9:50 AM48 °FSprinkles. Broken clouds.30 mph87%29.45 "Hg4 mi
8:50 AM52 °FBroken clouds.33 mph82%29.42 "HgN/A
7:50 AM52 °FPassing clouds.32 mph82%29.36 "Hg5 mi
6:50 AM50 °FRain. Partly cloudy.31 mph94%29.36 "Hg3 mi
5:50 AM52 °FRain. Passing clouds.31 mph94%29.36 "Hg5 mi
4:50 AM52 °FLight rain. Passing clouds.32 mph94%29.36 "HgN/A
3:50 AM54 °FLight rain. Passing clouds.35 mph82%29.39 "HgN/A
2:50 AM50 °FLight rain. Passing clouds.23 mph88%29.45 "HgN/A
Weather by CustomWeather, © 2015

See weather overviewHow to use our weather pages